User: anonymous   Login
Location: Laverne
(36.7100°N, 99.8930°W)
Time: 09:18:35
(UTC-05:00)
Language:

Iridium 32 - Orbit

View from above orbital plane
View from above orbital plane
View from above satellite
View from above satellite

Ground track
Ground track

The orbit data is extracted from the following two-line orbital elements,

1 24945U 97051B   16241.47182233 -.00000029  00000-0 -17426-4 0  9997
2 24945  86.3932  49.4750 0001955  85.8297 274.3122 14.34214539992462
Epoch (UTC): 28 August 2016 11:19:25
Eccentricity: 0.0001955
inclination: 86.3932°
perigee height: 776 km
apogee height: 779 km
right ascension of ascending node: 49.4750°
argument of perigee: 85.8297°
revolutions per day: 14.34214539
mean anomaly at epoch: 274.3122°
orbit number at epoch: 99246

The dashed part of the orbit path shows where the satellite is in the earth's shadow,  

DLR